Fairbanks, AK

4:15 AM AKDT on August 24, 2019 (GMT -0800)
Fairbanks International

Weather History for PAFA - December, 1974

Change the Weather History Date:

Thursday, December 5, 1974

  Actual Average Record
Temperature  
Mean Temperature 5 °F -3 °F  
Max Temperature 10 °F 6 °F 58 °F (1934)
Min Temperature 0 °F -11 °F -55 °F (1905)
Degree Days  
Heating Degree Days 60 68  
Month to date heating degree days 337  
Since 1 July heating degree days 4468  
Cooling Degree Days 0 0  
Month to date cooling degree days 0  
Year to date cooling degree days 61  
Moisture  
Dew Point -9 °F    
Average Humidity 53    
Maximum Humidity 62    
Minimum Humidity 48    
Precipitation  
Precipitation 0.00 in 0.01 in 0.29 in (1929)
Month to date precipitation 0.09  
Year to date precipitation 10.26  
Snow  
Snow 0.00 in 0.30 in 5.20 in (1929)
Month to date snowfall 1.8  
Since 1 July snowfall 27.6  
Snow Depth -    
Sea Level Pressure  
Sea Level Pressure 29.59 in    
Wind  
Wind Speed 9 mph (North)    
Max Wind Speed 13 mph    
Max Gust Speed -    
Visibility 12 miles    
Events      
T = Trace of Precipitation, MM = Missing Value Source: NWS Daily Summary

Daily Weather History Graph

Daily Weather History Graph

Search for Another Location

Airport or City:

Astronomy

Dec. 05, 1974 Rise Set
Actual Time 9:30 AM AHST 1:53 PM AHST
Civil Twilight 8:12 AM AHST 3:11 PM AHST
Nautical Twilight 7:03 AM AHST 4:20 PM AHST
Astronomical Twilight 6:02 AM AHST 5:21 PM AHST
Moon 11:31 PM AHST (12/5) 11:54 AM AHST (12/5)
Length of Visible Light 6h 58m
Length of Day
4h 23m
Waning Gibbous, 56% of the Moon is Illuminated
Dec 5
Waning Gibbous
Dec 6
Last Quarter
Dec 13
New
Dec 21
First Quarter
Dec 28
Full

Hourly Weather History & Observations

Time (AHST) Temp. Windchill Dew Point Humidity Pressure Visibility Wind Dir Wind Speed Gust Speed Precip Events Conditions
12:00 AM -0.9 °F -16.4 °F -11.0 °F 62% 29.61 in 10.0 mi North 9.2 mph - N/A   Overcast
1:00 AM - - - N/A% 29.60 in 10.0 mi NNE 6.9 mph - N/A   Mostly Cloudy
2:00 AM 1.9 °F -12.9 °F -11.0 °F 55% 29.60 in 10.0 mi NNE 9.2 mph - N/A   Overcast
3:00 AM 1.9 °F -12.9 °F -11.0 °F 55% 29.60 in 15.0 mi North 9.2 mph - N/A   Mostly Cloudy
4:00 AM 1.9 °F -12.9 °F -11.9 °F 52% 29.59 in 15.0 mi North 9.2 mph - N/A   Mostly Cloudy
5:00 AM 1.0 °F -14.9 °F -13.0 °F 52% 29.59 in 15.0 mi North 10.4 mph - N/A   Unknown
6:00 AM 1.9 °F -12.9 °F -11.9 °F 52% 29.59 in 15.0 mi NNW 9.2 mph - N/A   Mostly Cloudy
7:00 AM 3.0 °F -11.5 °F -11.0 °F 52% 29.58 in 15.0 mi North 9.2 mph - N/A   Overcast
8:00 AM 3.0 °F -11.5 °F -11.0 °F 52% 29.58 in 30.0 mi North 9.2 mph - N/A   Overcast
9:00 AM 3.9 °F -13.0 °F -9.9 °F 53% 29.58 in 30.0 mi North 12.7 mph - N/A   Overcast
10:00 AM 3.9 °F -11.3 °F -9.9 °F 53% 29.60 in 60.0 mi North 10.4 mph - N/A   Overcast
11:00 AM 5.0 °F -10.0 °F -9.0 °F 52% 29.58 in 80.0 mi North 10.4 mph - N/A   Overcast
12:00 PM 6.1 °F -7.8 °F -7.1 °F 55% 29.57 in 80.0 mi North 9.2 mph - N/A   Overcast
1:00 PM 7.0 °F -9.1 °F -7.1 °F 53% 29.57 in 80.0 mi North 12.7 mph - N/A   Overcast
2:00 PM 8.1 °F -6.2 °F -6.0 °F 53% 29.55 in 80.0 mi North 10.4 mph - N/A   Overcast
3:00 PM 9.0 °F -6.6 °F -5.1 °F 53% 29.56 in 80.0 mi North 12.7 mph - N/A   Overcast
4:00 PM 10.0 °F -5.2 °F -5.1 °F 51% 29.55 in 30.0 mi North 12.7 mph - N/A   Overcast
5:00 PM 10.0 °F -4.5 °F -6.0 °F 48% 29.59 in 10.0 mi North 11.5 mph - N/A   Overcast
6:00 PM 9.0 °F -4.2 °F -6.0 °F 51% 29.59 in 10.0 mi WNW 9.2 mph - N/A   Overcast
7:00 PM 10.0 °F -2.9 °F -5.1 °F 51% 29.60 in 10.0 mi North 9.2 mph - N/A   Overcast
8:00 PM 10.0 °F -0.9 °F -5.1 °F 51% 29.62 in 10.0 mi North 6.9 mph - N/A   Overcast
9:00 PM 9.0 °F 2.4 °F -5.1 °F 53% 29.63 in 10.0 mi NNW 3.5 mph - N/A   Mostly Cloudy
10:00 PM 1.0 °F -8.7 °F -11.0 °F 57% 29.67 in 10.0 mi South 4.6 mph - N/A   Partly Cloudy
11:00 PM -0.9 °F -8.9 °F -11.0 °F 62% 29.68 in 10.0 mi SSE 3.5 mph - N/A   Partly Cloudy